| time (UTC) | temp F | wind direction | speed MPH | gust MPH | rain 1hr in | rain 24hr in | rain mn in | humidity % | barometer mb |
| 20260904135420 | 91 | 128 | 7.0 | 10.0 | 0.00 | 0.00 | 0.00 | 31 | 1021.4 |
| 20260904134919 | 91 | 112 | 7.0 | 13.0 | 0.00 | 0.00 | 0.00 | 30 | 1021.5 |
| 20260904134419 | 92 | 131 | 9.0 | 13.0 | 0.00 | 0.00 | 0.00 | 30 | 1021.5 |
| 20260904133920 | 92 | 140 | 6.0 | 8.0 | 0.00 | 0.00 | 0.00 | 30 | 1021.6 |
| 20260904133420 | 91 | 157 | 7.0 | 13.0 | 0.00 | 0.00 | 0.00 | 30 | 1021.5 |
| 20260904132919 | 91 | 150 | 8.0 | 13.0 | 0.00 | 0.00 | 0.00 | 30 | 1021.6 |
| 20260904132420 | 91 | 122 | 9.0 | 12.0 | 0.00 | 0.00 | 0.00 | 30 | 1021.5 |
| 20260904131920 | 92 | 139 | 7.0 | 13.0 | 0.00 | 0.00 | 0.00 | 30 | 1021.7 |
| 20260904131419 | 91 | 143 | 3.0 | 6.0 | 0.00 | 0.00 | 0.00 | 31 | 1021.6 |
| 20260904130919 | 91 | 143 | 6.0 | 8.0 | 0.00 | 0.00 | 0.00 | 31 | 1021.7 |
| 20260904130418 | 91 | 134 | 9.0 | 14.0 | 0.00 | 0.00 | 0.00 | 31 | 1021.8 |
| 20260904125920 | 91 | 112 | 3.0 | 6.0 | 0.00 | 0.00 | 0.00 | 31 | 1021.8 |
| 20260904125419 | 90 | 125 | 6.0 | 8.0 | 0.00 | 0.00 | 0.00 | 34 | 1021.8 |
| 20260904124919 | 90 | 118 | 8.0 | 10.0 | 0.00 | 0.00 | 0.00 | 34 | 1021.9 |
| 20260904124420 | 90 | 135 | 6.0 | 9.0 | 0.00 | 0.00 | 0.00 | 33 | 1021.8 |
| 20260904123918 | 90 | 118 | 5.0 | 7.0 | 0.00 | 0.00 | 0.00 | 33 | 1022.0 |
| 20260904123420 | 90 | 119 | 6.0 | 10.0 | 0.00 | 0.00 | 0.00 | 34 | 1022.1 |
| 20260904122919 | 90 | 142 | 7.0 | 9.0 | 0.00 | 0.00 | 0.00 | 33 | 1022.1 |
| 20260904122418 | 90 | 113 | 7.0 | 10.0 | 0.00 | 0.00 | 0.00 | 33 | 1022.2 |
| 20260904121920 | 90 | 128 | 6.0 | 10.0 | 0.00 | 0.00 | 0.00 | 34 | 1022.2 |
| 20260904121419 | 90 | 125 | 7.0 | 9.0 | 0.00 | 0.00 | 0.00 | 34 | 1022.2 |
| 20260904120918 | 90 | 119 | 6.0 | 9.0 | 0.00 | 0.00 | 0.00 | 34 | 1022.1 |
| 20260904120420 | 89 | 131 | 7.0 | 10.0 | 0.00 | 0.00 | 0.00 | 33 | 1022.3 |
| 20260904115919 | 89 | 135 | 6.0 | 8.0 | 0.00 | 0.00 | 0.00 | 33 | 1022.3 |
| 20260904115418 | 89 | 158 | 6.0 | 10.0 | 0.00 | 0.00 | 0.00 | 33 | 1022.3 |
| 20260904114919 | 90 | 158 | 5.0 | 10.0 | 0.00 | 0.00 | 0.00 | 34 | 1022.4 |
| 20260904114420 | 90 | 139 | 5.0 | 9.0 | 0.00 | 0.00 | 0.00 | 33 | 1022.5 |
| 20260904113920 | 90 | 120 | 5.0 | 7.0 | 0.00 | 0.00 | 0.00 | 32 | 1022.4 |
| 20260904113419 | 90 | 135 | 6.0 | 10.0 | 0.00 | 0.00 | 0.00 | 32 | 1022.4 |
| 20260904112918 | 90 | 158 | 3.0 | 6.0 | 0.00 | 0.00 | 0.00 | 31 | 1022.5 |
| 20260904112420 | 91 | 135 | 5.0 | 6.0 | 0.00 | 0.00 | 0.00 | 30 | 1022.6 |
| 20260904111919 | 90 | 144 | 5.0 | 6.0 | 0.00 | 0.00 | 0.00 | 32 | 1022.7 |
| 20260904111420 | 89 | 129 | 5.0 | 6.0 | 0.00 | 0.00 | 0.00 | 33 | 1022.7 |
| 20260904110919 | 89 | 112 | 7.0 | 8.0 | 0.00 | 0.00 | 0.00 | 31 | 1022.7 |
| 20260904110419 | 89 | 115 | 7.0 | 8.0 | 0.00 | 0.00 | 0.00 | 32 | 1022.8 |
| 20260904105918 | 89 | 135 | 7.0 | 8.0 | 0.00 | 0.00 | 0.00 | 33 | 1022.8 |
| 20260904105420 | 89 | 153 | 5.0 | 6.0 | 0.00 | 0.00 | 0.00 | 33 | 1022.9 |
| 20260904104919 | 89 | 158 | 5.0 | 6.0 | 0.00 | 0.00 | 0.00 | 33 | 1023.0 |
| 20260904104418 | 88 | 135 | 6.0 | 8.0 | 0.00 | 0.00 | 0.00 | 33 | 1023.0 |
| 20260904103920 | 88 | 141 | 5.0 | 8.0 | 0.00 | 0.00 | 0.00 | 33 | 1023.2 |
| 20260904103419 | 88 | 135 | 5.0 | 8.0 | 0.00 | 0.00 | 0.00 | 33 | 1023.2 |
| 20260904102918 | 89 | 135 | 5.0 | 9.0 | 0.00 | 0.00 | 0.00 | 32 | 1023.4 |
| 20260904102420 | 89 | 135 | 6.0 | 7.0 | 0.00 | 0.00 | 0.00 | 32 | 1023.5 |
| 20260904101919 | 88 | 124 | 5.0 | 8.0 | 0.00 | 0.00 | 0.00 | 31 | 1023.5 |
| 20260904101419 | 88 | 135 | 5.0 | 6.0 | 0.00 | 0.00 | 0.00 | 31 | 1023.5 |
| 20260904100920 | 88 | 147 | 3.0 | 5.0 | 0.00 | 0.00 | 0.00 | 30 | 1023.5 |
| 20260904100419 | 88 | 112 | 6.0 | 8.0 | 0.00 | 0.00 | 0.00 | 30 | 1023.7 |
| 20260904095919 | 88 | 135 | 3.0 | 6.0 | 0.00 | 0.00 | 0.00 | 30 | 1023.7 |
| 20260904095420 | 88 | 112 | 3.0 | 5.0 | 0.00 | 0.00 | 0.00 | 30 | 1023.8 |
| 20260904094919 | 88 | 129 | 5.0 | 7.0 | 0.00 | 0.00 | 0.00 | 30 | 1023.8 |
| 20260904094419 | 88 | 158 | 3.0 | 8.0 | 0.00 | 0.00 | 0.00 | 30 | 1023.9 |
| 20260904093920 | 88 | 158 | 3.0 | 3.0 | 0.00 | 0.00 | 0.00 | 30 | 1023.9 |
| 20260904093419 | 88 | 135 | 5.0 | 8.0 | 0.00 | 0.00 | 0.00 | 29 | 1024.0 |
| 20260904092919 | 87 | 151 | 3.0 | 6.0 | 0.00 | 0.00 | 0.00 | 26 | 1024.1 |
| 20260904092418 | 88 | 145 | 3.0 | 6.0 | 0.00 | 0.00 | 0.00 | 24 | 1024.2 |
| 20260904091920 | 89 | 140 | 3.0 | 5.0 | 0.00 | 0.00 | 0.00 | 25 | 1024.2 |
| 20260904091419 | 87 | 135 | 2.0 | 5.0 | 0.00 | 0.00 | 0.00 | 22 | 1024.2 |
| 20260904090920 | 88 | 135 | 2.0 | 3.0 | 0.00 | 0.00 | 0.00 | 21 | 1024.3 |
| 20260904090419 | 89 | 135 | 1.0 | 2.0 | 0.00 | 0.00 | 0.00 | 21 | 1024.3 |
| 20260904085919 | 89 | 158 | 3.0 | 3.0 | 0.00 | 0.00 | 0.00 | 22 | 1024.2 |
| 20260904085419 | 88 | 135 | 1.0 | 2.0 | 0.00 | 0.00 | 0.00 | 21 | 1024.3 |
| 20260904084920 | 87 | 135 | 1.0 | 1.0 | 0.00 | 0.00 | 0.00 | 21 | 1024.3 |
| 20260904084419 | 87 | 146 | 1.0 | 3.0 | 0.00 | 0.00 | 0.00 | 21 | 1024.4 |
| 20260904083919 | 87 | 136 | 1.0 | 1.0 | 0.00 | 0.00 | 0.00 | 22 | 1024.2 |
| 20260904083418 | 86 | 135 | 1.0 | 3.0 | 0.00 | 0.00 | 0.00 | 22 | 1024.3 |
| 20260904082919 | 86 | 135 | 1.0 | 2.0 | 0.00 | 0.00 | 0.00 | 22 | 1024.3 |
| 20260904082420 | 85 | 135 | 0.0 | 2.0 | 0.00 | 0.00 | 0.00 | 23 | 1024.3 |
| 20260904081919 | 85 | 135 | 2.0 | 3.0 | 0.00 | 0.00 | 0.00 | 23 | 1024.3 |
| 20260904081418 | 85 | 135 | 1.0 | 3.0 | 0.00 | 0.00 | 0.00 | 23 | 1024.4 |
| 20260904080919 | 85 | 135 | 2.0 | 3.0 | 0.00 | 0.00 | 0.00 | 23 | 1024.3 |
| 20260904080420 | 85 | 135 | 2.0 | 3.0 | 0.00 | 0.00 | 0.00 | 24 | 1024.3 |
| 20260904075919 | 84 | 135 | 1.0 | 2.0 | 0.00 | 0.00 | 0.00 | 25 | 1024.4 |
| 20260904075419 | 84 | 135 | 1.0 | 2.0 | 0.00 | 0.00 | 0.00 | 25 | 1024.4 |
| 20260904074918 | 84 | 135 | 1.0 | 2.0 | 0.00 | 0.00 | 0.00 | 27 | 1024.4 |
| 20260904074420 | 84 | 135 | 1.0 | 2.0 | 0.00 | 0.00 | 0.00 | 30 | 1024.4 |
| 20260904073919 | 84 | 135 | 1.0 | 1.0 | 0.00 | 0.00 | 0.00 | 30 | 1024.4 |
| 20260904073419 | 83 | 135 | 0.0 | 1.0 | 0.00 | 0.00 | 0.00 | 31 | 1024.4 |
| 20260904072920 | 82 | 135 | 0.0 | 1.0 | 0.00 | 0.00 | 0.00 | 31 | 1024.5 |
| 20260904072419 | 80 | 135 | 1.0 | 2.0 | 0.00 | 0.00 | 0.00 | 33 | 1024.5 |
| 20260904071919 | 79 | 135 | 1.0 | 2.0 | 0.00 | 0.00 | 0.00 | 34 | 1024.5 |
| 20260904071418 | 78 | 135 | 1.0 | 5.0 | 0.00 | 0.00 | 0.00 | 36 | 1024.4 |
| 20260904070919 | 78 | 135 | 2.0 | 3.0 | 0.00 | 0.00 | 0.00 | 37 | 1024.4 |
| 20260904070419 | 78 | 156 | 1.0 | 1.0 | 0.00 | 0.00 | 0.00 | 38 | 1024.3 |
| 20260904065919 | 78 | 135 | 1.0 | 2.0 | 0.00 | 0.00 | 0.00 | 37 | 1024.3 |
| 20260904065418 | 78 | 135 | 1.0 | 1.0 | 0.00 | 0.00 | 0.00 | 36 | 1024.4 |
| 20260904064919 | 78 | 140 | 2.0 | 3.0 | 0.00 | 0.00 | 0.00 | 40 | 1024.4 |
| 20260904064419 | 76 | 158 | 0.0 | 0.0 | 0.00 | 0.00 | 0.00 | 40 | 1024.4 |
| 20260904063918 | 75 | 158 | 0.0 | 0.0 | 0.00 | 0.00 | 0.00 | 42 | 1024.4 |
| 20260904063420 | 74 | 154 | 3.0 | 3.0 | 0.00 | 0.00 | 0.00 | 41 | 1024.3 |
| 20260904062919 | 74 | 135 | 0.0 | 1.0 | 0.00 | 0.00 | 0.00 | 43 | 1024.4 |
| 20260904062419 | 72 | 135 | 0.0 | 1.0 | 0.00 | 0.00 | 0.00 | 49 | 1024.3 |
| 20260904061920 | 71 | 135 | 2.0 | 5.0 | 0.00 | 0.00 | 0.00 | 50 | 1024.2 |
| 20260904061419 | 71 | 135 | 0.0 | 2.0 | 0.00 | 0.00 | 0.00 | 49 | 1024.1 |
| 20260904060918 | 70 | 135 | 1.0 | 2.0 | 0.00 | 0.00 | 0.00 | 49 | 1024.0 |
| 20260904060420 | 69 | 135 | 2.0 | 3.0 | 0.00 | 0.00 | 0.00 | 50 | 1024.1 |
| 20260904055919 | 69 | 135 | 1.0 | 3.0 | 0.00 | 0.00 | 0.00 | 50 | 1024.1 |
| 20260904055418 | 69 | 135 | 0.0 | 1.0 | 0.00 | 0.00 | 0.00 | 51 | 1024.0 |
| 20260904054919 | 67 | 135 | 0.0 | 1.0 | 0.00 | 0.00 | 0.00 | 52 | 1024.0 |
| 20260904054418 | 65 | 135 | 0.0 | 0.0 | 0.00 | 0.00 | 0.00 | 55 | 1024.0 |
| 20260904053919 | 63 | 135 | 1.0 | 2.0 | 0.00 | 0.00 | 0.00 | 60 | 1023.9 |
| 20260904053419 | 62 | 135 | 2.0 | 3.0 | 0.00 | 0.00 | 0.00 | 60 | 1023.8 |
| 20260904052920 | 63 | 135 | 1.0 | 3.0 | 0.00 | 0.00 | 0.00 | 59 | 1023.7 |
| 20260904052419 | 63 | 135 | 1.0 | 2.0 | 0.00 | 0.00 | 0.00 | 55 | 1023.8 |
| 20260904051918 | 65 | 135 | 1.0 | 2.0 | 0.00 | 0.00 | 0.00 | 51 | 1023.8 |
| 20260904051420 | 65 | 135 | 3.0 | 5.0 | 0.00 | 0.00 | 0.00 | 50 | 1023.7 |
| 20260904050919 | 62 | 145 | 2.0 | 5.0 | 0.00 | 0.00 | 0.00 | 60 | 1023.8 |
| 20260904050418 | 61 | 152 | 5.0 | 6.0 | 0.00 | 0.00 | 0.00 | 63 | 1023.8 |
| 20260904045919 | 60 | 135 | 0.0 | 1.0 | 0.00 | 0.00 | 0.00 | 62 | 1023.9 |
| 20260904045418 | 60 | 135 | 1.0 | 1.0 | 0.00 | 0.00 | 0.00 | 63 | 1023.8 |
| 20260904044920 | 60 | 136 | 0.0 | 1.0 | 0.00 | 0.00 | 0.00 | 63 | 1023.7 |
| 20260904044419 | 60 | 135 | 0.0 | 0.0 | 0.00 | 0.00 | 0.00 | 64 | 1023.8 |
| 20260904043918 | 60 | 153 | 2.0 | 3.0 | 0.00 | 0.00 | 0.00 | 63 | 1023.7 |
| 20260904043420 | 60 | 158 | 0.0 | 3.0 | 0.00 | 0.00 | 0.00 | 63 | 1023.7 |
| 20260904042919 | 61 | 158 | 1.0 | 5.0 | 0.00 | 0.00 | 0.00 | 62 | 1023.8 |
| 20260904042418 | 62 | 135 | 0.0 | 1.0 | 0.00 | 0.00 | 0.00 | 61 | 1023.7 |
| 20260904041919 | 63 | 135 | 0.0 | 1.0 | 0.00 | 0.00 | 0.00 | 59 | 1023.7 |
| 20260904041420 | 62 | 135 | 5.0 | 6.0 | 0.00 | 0.00 | 0.00 | 61 | 1023.7 |
| 20260904040919 | 61 | 155 | 3.0 | 6.0 | 0.00 | 0.00 | 0.00 | 62 | 1023.7 |
| 20260904040419 | 61 | 158 | 0.0 | 1.0 | 0.00 | 0.00 | 0.00 | 63 | 1023.7 |
| 20260904035632 | 61 | 158 | 2.0 | 3.0 | 0.00 | 0.00 | 0.00 | 63 | 1023.8 |
| 20260904035134 | 61 | 149 | 1.0 | 5.0 | 0.00 | 0.00 | 0.00 | 63 | 1023.7 |
| 20260904034633 | 60 | 158 | 2.0 | 2.0 | 0.00 | 0.00 | 0.00 | 64 | 1023.8 |
| 20260904034133 | 61 | 158 | 2.0 | 3.0 | 0.00 | 0.00 | 0.00 | 63 | 1023.8 |
| 20260904033632 | 61 | 158 | 1.0 | 2.0 | 0.00 | 0.00 | 0.00 | 63 | 1023.9 |
| 20260904033134 | 62 | 158 | 1.0 | 1.0 | 0.00 | 0.00 | 0.00 | 62 | 1023.9 |
| 20260904032633 | 62 | 158 | 1.0 | 2.0 | 0.00 | 0.00 | 0.00 | 61 | 1023.9 |
| 20260904032135 | 63 | 135 | 2.0 | 6.0 | 0.00 | 0.00 | 0.00 | 60 | 1024.0 |
| 20260904031633 | 63 | 135 | 1.0 | 2.0 | 0.00 | 0.00 | 0.00 | 60 | 1024.0 |
| 20260904031132 | 62 | 135 | 1.0 | 3.0 | 0.00 | 0.00 | 0.00 | 61 | 1023.9 |
| 20260904030633 | 62 | 135 | 1.0 | 2.0 | 0.00 | 0.00 | 0.00 | 62 | 1024.0 |
| 20260904030133 | 62 | 135 | 1.0 | 3.0 | 0.00 | 0.00 | 0.00 | 62 | 1024.0 |
| 20260904025632 | 62 | 135 | 0.0 | 2.0 | 0.00 | 0.00 | 0.00 | 62 | 1024.1 |
| 20260904025133 | 62 | 135 | 1.0 | 3.0 | 0.00 | 0.00 | 0.00 | 62 | 1024.0 |
| 20260904024633 | 62 | 135 | 0.0 | 1.0 | 0.00 | 0.00 | 0.00 | 62 | 1024.0 |
| 20260904024134 | 62 | 135 | 2.0 | 3.0 | 0.00 | 0.00 | 0.00 | 63 | 1024.1 |
| 20260904023633 | 62 | 135 | 2.0 | 3.0 | 0.00 | 0.00 | 0.00 | 62 | 1024.0 |
| 20260904023133 | 62 | 135 | 0.0 | 2.0 | 0.00 | 0.00 | 0.00 | 62 | 1024.1 |
| 20260904022634 | 62 | 135 | 2.0 | 3.0 | 0.00 | 0.00 | 0.00 | 62 | 1024.0 |
| 20260904022133 | 62 | 135 | 0.0 | 0.0 | 0.00 | 0.00 | 0.00 | 62 | 1024.0 |
| 20260904021632 | 62 | 135 | 1.0 | 1.0 | 0.00 | 0.00 | 0.00 | 62 | 1024.0 |
| 20260904021132 | 63 | 135 | 1.0 | 2.0 | 0.00 | 0.00 | 0.00 | 61 | 1024.0 |
| 20260904020633 | 64 | 135 | 0.0 | 1.0 | 0.00 | 0.00 | 0.00 | 56 | 1023.9 |
| 20260904020133 | 64 | 135 | 2.0 | 3.0 | 0.00 | 0.00 | 0.00 | 55 | 1024.0 |
| 20260904015632 | 64 | 135 | 2.0 | 3.0 | 0.00 | 0.00 | 0.00 | 56 | 1024.0 |
| 20260904015135 | 63 | 135 | 2.0 | 3.0 | 0.00 | 0.00 | 0.00 | 61 | 1024.1 |
| 20260904014634 | 63 | 158 | 1.0 | 2.0 | 0.00 | 0.00 | 0.00 | 61 | 1024.0 |
| 20260904014132 | 63 | 158 | 0.0 | 1.0 | 0.00 | 0.00 | 0.00 | 61 | 1024.0 |
| 20260904013634 | 64 | 152 | 1.0 | 2.0 | 0.00 | 0.00 | 0.00 | 56 | 1024.0 |
| 20260904013133 | 64 | 158 | 1.0 | 2.0 | 0.00 | 0.00 | 0.00 | 56 | 1024.0 |
| 20260904012632 | 64 | 158 | 3.0 | 3.0 | 0.00 | 0.00 | 0.00 | 55 | 1023.9 |
| 20260904012134 | 64 | 135 | 0.0 | 1.0 | 0.00 | 0.00 | 0.00 | 56 | 1023.9 |
| 20260904011633 | 63 | 158 | 1.0 | 1.0 | 0.00 | 0.00 | 0.00 | 61 | 1023.9 |
| 20260904011132 | 63 | 139 | 2.0 | 3.0 | 0.00 | 0.00 | 0.00 | 62 | 1024.0 |
| 20260904010634 | 63 | 158 | 1.0 | 1.0 | 0.00 | 0.00 | 0.00 | 62 | 1024.0 |
| 20260904010133 | 64 | 158 | 0.0 | 0.0 | 0.00 | 0.00 | 0.00 | 59 | 1023.9 |
| 20260904005633 | 63 | 158 | 3.0 | 5.0 | 0.00 | 0.00 | 0.00 | 62 | 1024.0 |
| 20260904005132 | 63 | 135 | 0.0 | 0.0 | 0.00 | 0.00 | 0.00 | 63 | 1024.0 |
| 20260904004632 | 63 | 135 | 0.0 | 0.0 | 0.00 | 0.00 | 0.00 | 63 | 1023.9 |
| 20260904004133 | 63 | 158 | 1.0 | 3.0 | 0.00 | 0.00 | 0.00 | 63 | 1024.0 |
| 20260904003632 | 62 | 149 | 1.0 | 2.0 | 0.00 | 0.00 | 0.00 | 65 | 1024.0 |
| 20260904003133 | 63 | 158 | 0.0 | 1.0 | 0.00 | 0.00 | 0.00 | 65 | 1024.0 |
| 20260904002633 | 62 | 158 | 0.0 | 1.0 | 0.00 | 0.00 | 0.00 | 66 | 1024.0 |
| 20260904001917 | 62 | 158 | 0.0 | 2.0 | 0.00 | 0.00 | 0.00 | 67 | 1024.1 |
| 20260904001417 | 62 | 135 | 0.0 | 0.0 | 0.00 | 0.00 | 0.00 | 67 | 1024.1 |
| 20260904000916 | 62 | 152 | 1.0 | 1.0 | 0.00 | 0.00 | 0.00 | 66 | 1024.0 |
| 20260904000418 | 62 | 144 | 0.0 | 1.0 | 0.00 | 0.00 | 0.00 | 67 | 1024.1 |
| 20260903235917 | 62 | 135 | 1.0 | 2.0 | 0.00 | 0.00 | 0.00 | 67 | 1024.1 |
| 20260903235416 | 62 | 135 | 1.0 | 2.0 | 0.00 | 0.00 | 0.00 | 67 | 1024.0 |
| 20260903234918 | 63 | 135 | 0.0 | 0.0 | 0.00 | 0.00 | 0.00 | 67 | 1024.0 |
| 20260903234417 | 63 | 135 | 1.0 | 2.0 | 0.00 | 0.00 | 0.00 | 67 | 1024.1 |
| 20260903233916 | 63 | 140 | 1.0 | 1.0 | 0.00 | 0.00 | 0.00 | 65 | 1024.0 |
| 20260903233418 | 64 | 135 | 1.0 | 2.0 | 0.00 | 0.00 | 0.00 | 62 | 1024.0 |
| 20260903232917 | 63 | 113 | 1.0 | 1.0 | 0.00 | 0.00 | 0.00 | 66 | 1023.9 |
| 20260903232416 | 64 | 152 | 0.0 | 1.0 | 0.00 | 0.00 | 0.00 | 62 | 1023.9 |
| 20260903231916 | 64 | 135 | 0.0 | 1.0 | 0.00 | 0.00 | 0.00 | 61 | 1023.9 |
| 20260903231417 | 64 | 141 | 1.0 | 2.0 | 0.00 | 0.00 | 0.00 | 62 | 1023.8 |
| 20260903230917 | 64 | 158 | 5.0 | 6.0 | 0.00 | 0.00 | 0.00 | 62 | 1023.8 |
| 20260903230416 | 64 | 135 | 0.0 | 1.0 | 0.00 | 0.00 | 0.00 | 62 | 1023.9 |
| 20260903225918 | 64 | 135 | 1.0 | 2.0 | 0.00 | 0.00 | 0.00 | 63 | 1023.8 |
| 20260903225417 | 64 | 135 | 3.0 | 6.0 | 0.00 | 0.00 | 0.00 | 63 | 1023.7 |
| 20260903224916 | 64 | 158 | 2.0 | 3.0 | 0.00 | 0.00 | 0.00 | 64 | 1023.7 |
| 20260903224418 | 64 | 141 | 1.0 | 2.0 | 0.00 | 0.00 | 0.00 | 64 | 1023.8 |
| 20260903223917 | 65 | 135 | 3.0 | 5.0 | 0.00 | 0.00 | 0.00 | 63 | 1023.9 |
| 20260903223416 | 65 | 116 | 3.0 | 5.0 | 0.00 | 0.00 | 0.00 | 63 | 1023.8 |
| 20260903222916 | 65 | 151 | 1.0 | 5.0 | 0.00 | 0.00 | 0.00 | 62 | 1023.8 |
| 20260903222417 | 65 | 158 | 2.0 | 3.0 | 0.00 | 0.00 | 0.00 | 63 | 1023.8 |
| 20260903221919 | 65 | 135 | 1.0 | 1.0 | 0.00 | 0.00 | 0.00 | 62 | 1023.8 |
| 20260903221418 | 66 | 135 | 3.0 | 3.0 | 0.00 | 0.00 | 0.00 | 62 | 1023.8 |
| 20260903220918 | 66 | 135 | 0.0 | 2.0 | 0.00 | 0.00 | 0.00 | 61 | 1023.8 |
| 20260903220421 | 66 | 135 | 3.0 | 3.0 | 0.00 | 0.00 | 0.00 | 61 | 1023.8 |
| 20260903215919 | 66 | 135 | 0.0 | 0.0 | 0.00 | 0.00 | 0.00 | 61 | 1023.9 |
| 20260903215418 | 67 | 135 | 1.0 | 1.0 | 0.00 | 0.00 | 0.00 | 61 | 1024.0 |
| 20260903214917 | 67 | 135 | 0.0 | 5.0 | 0.00 | 0.00 | 0.00 | 61 | 1023.8 |
| 20260903214419 | 67 | 135 | 1.0 | 2.0 | 0.00 | 0.00 | 0.00 | 61 | 1023.8 |
| 20260903213917 | 67 | 135 | 2.0 | 3.0 | 0.00 | 0.00 | 0.00 | 60 | 1023.9 |
| 20260903213419 | 68 | 135 | 1.0 | 3.0 | 0.00 | 0.00 | 0.00 | 60 | 1023.9 |
| 20260903212918 | 68 | 135 | 0.0 | 1.0 | 0.00 | 0.00 | 0.00 | 59 | 1024.0 |
| 20260903212418 | 69 | 135 | 3.0 | 6.0 | 0.00 | 0.00 | 0.00 | 58 | 1024.0 |
| 20260903211918 | 68 | 135 | 2.0 | 3.0 | 0.00 | 0.00 | 0.00 | 59 | 1024.0 |
| 20260903211418 | 69 | 135 | 5.0 | 6.0 | 0.00 | 0.00 | 0.00 | 58 | 1024.0 |
| 20260903210918 | 69 | 135 | 2.0 | 3.0 | 0.00 | 0.00 | 0.00 | 59 | 1024.1 |
| 20260903210418 | 69 | 135 | 3.0 | 3.0 | 0.00 | 0.00 | 0.00 | 60 | 1024.1 |
| 20260903205917 | 69 | 158 | 3.0 | 5.0 | 0.00 | 0.00 | 0.00 | 59 | 1024.0 |
| 20260903205418 | 69 | 154 | 0.0 | 1.0 | 0.00 | 0.00 | 0.00 | 59 | 1024.0 |
| 20260903204917 | 70 | 135 | 0.0 | 1.0 | 0.00 | 0.00 | 0.00 | 59 | 1024.0 |
| 20260903204418 | 70 | 157 | 1.0 | 3.0 | 0.00 | 0.00 | 0.00 | 58 | 1024.1 |
| 20260903203917 | 70 | 135 | 2.0 | 5.0 | 0.00 | 0.00 | 0.00 | 59 | 1024.0 |
| 20260903203416 | 70 | 158 | 2.0 | 3.0 | 0.00 | 0.00 | 0.00 | 60 | 1024.0 |
| 20260903202916 | 69 | 158 | 3.0 | 6.0 | 0.00 | 0.00 | 0.00 | 61 | 1024.0 |
| 20260903202416 | 70 | 144 | 0.0 | 0.0 | 0.00 | 0.00 | 0.00 | 61 | 1023.9 |
| 20260903201916 | 70 | 149 | 1.0 | 3.0 | 0.00 | 0.00 | 0.00 | 60 | 1023.9 |
| 20260903201416 | 71 | 135 | 1.0 | 3.0 | 0.00 | 0.00 | 0.00 | 59 | 1023.9 |
| 20260903200917 | 71 | 142 | 2.0 | 3.0 | 0.00 | 0.00 | 0.00 | 59 | 1023.8 |
| 20260903200417 | 72 | 136 | 2.0 | 6.0 | 0.00 | 0.00 | 0.00 | 58 | 1023.9 |
| 20260903195916 | 73 | 158 | 0.0 | 1.0 | 0.00 | 0.00 | 0.00 | 52 | 1023.8 |
| 20260903195416 | 73 | 146 | 1.0 | 3.0 | 0.00 | 0.00 | 0.00 | 52 | 1023.8 |
| 20260903194917 | 73 | 158 | 1.0 | 3.0 | 0.00 | 0.00 | 0.00 | 53 | 1023.7 |
| 20260903194416 | 73 | 144 | 2.0 | 3.0 | 0.00 | 0.00 | 0.00 | 53 | 1023.7 |
| 20260903193917 | 73 | 151 | 5.0 | 6.0 | 0.00 | 0.00 | 0.00 | 53 | 1023.6 |
| 20260903193417 | 73 | 136 | 5.0 | 6.0 | 0.00 | 0.00 | 0.00 | 53 | 1023.7 |
| 20260903192916 | 74 | 135 | 2.0 | 5.0 | 0.00 | 0.00 | 0.00 | 53 | 1023.7 |
| 20260903192418 | 73 | 135 | 2.0 | 3.0 | 0.00 | 0.00 | 0.00 | 53 | 1023.6 |
| 20260903191917 | 73 | 135 | 0.0 | 2.0 | 0.00 | 0.00 | 0.00 | 53 | 1023.7 |
| 20260903191417 | 74 | 135 | 2.0 | 5.0 | 0.00 | 0.00 | 0.00 | 53 | 1023.5 |
| 20260903190916 | 74 | 135 | 1.0 | 3.0 | 0.00 | 0.00 | 0.00 | 52 | 1023.6 |
| 20260903190417 | 75 | 158 | 2.0 | 3.0 | 0.00 | 0.00 | 0.00 | 52 | 1023.5 |
| 20260903185917 | 74 | 158 | 5.0 | 6.0 | 0.00 | 0.00 | 0.00 | 53 | 1023.4 |
| 20260903185416 | 74 | 142 | 1.0 | 2.0 | 0.00 | 0.00 | 0.00 | 53 | 1023.5 |
| 20260903184917 | 75 | 158 | 0.0 | 1.0 | 0.00 | 0.00 | 0.00 | 52 | 1023.4 |
| 20260903184417 | 75 | 158 | 2.0 | 3.0 | 0.00 | 0.00 | 0.00 | 53 | 1023.3 |
| 20260903183916 | 74 | 154 | 1.0 | 2.0 | 0.00 | 0.00 | 0.00 | 54 | 1023.3 |
| 20260903183418 | 75 | 135 | 1.0 | 2.0 | 0.00 | 0.00 | 0.00 | 54 | 1023.3 |
| 20260903182916 | 75 | 158 | 1.0 | 3.0 | 0.00 | 0.00 | 0.00 | 52 | 1023.2 |
| 20260903182417 | 76 | 158 | 0.0 | 1.0 | 0.00 | 0.00 | 0.00 | 53 | 1023.2 |
| 20260903181917 | 76 | 158 | 0.0 | 1.0 | 0.00 | 0.00 | 0.00 | 53 | 1023.2 |
| 20260903181416 | 76 | 158 | 0.0 | 0.0 | 0.00 | 0.00 | 0.00 | 52 | 1023.1 |
| 20260903180918 | 77 | 158 | 1.0 | 2.0 | 0.00 | 0.00 | 0.00 | 52 | 1023.1 |
| 20260903180417 | 78 | 141 | 0.0 | 1.0 | 0.00 | 0.00 | 0.00 | 50 | 1023.0 |
| 20260903175916 | 79 | 135 | 0.0 | 0.0 | 0.00 | 0.00 | 0.00 | 49 | 1023.0 |
| 20260903175416 | 79 | 135 | 0.0 | 0.0 | 0.00 | 0.00 | 0.00 | 48 | 1022.9 |
| 20260903174917 | 80 | 135 | 0.0 | 1.0 | 0.00 | 0.00 | 0.00 | 47 | 1022.8 |
| 20260903174416 | 80 | 135 | 1.0 | 1.0 | 0.00 | 0.00 | 0.00 | 47 | 1022.7 |
| 20260903173917 | 80 | 135 | 1.0 | 2.0 | 0.00 | 0.00 | 0.00 | 50 | 1022.7 |
| 20260903173416 | 80 | 158 | 3.0 | 5.0 | 0.00 | 0.00 | 0.00 | 47 | 1022.7 |
| 20260903172917 | 81 | 158 | 2.0 | 3.0 | 0.00 | 0.00 | 0.00 | 46 | 1022.4 |
| 20260903172417 | 82 | 148 | 0.0 | 1.0 | 0.00 | 0.00 | 0.00 | 41 | 1022.5 |
| 20260903171918 | 83 | 158 | 2.0 | 3.0 | 0.00 | 0.00 | 0.00 | 41 | 1022.4 |
| 20260903171418 | 84 | 158 | 1.0 | 1.0 | 0.00 | 0.00 | 0.00 | 40 | 1022.4 |
| 20260903170917 | 85 | 158 | 2.0 | 3.0 | 0.00 | 0.00 | 0.00 | 37 | 1022.3 |
| 20260903170417 | 86 | 156 | 2.0 | 3.0 | 0.00 | 0.00 | 0.00 | 35 | 1022.3 |
| 20260903165917 | 87 | 135 | 5.0 | 6.0 | 0.00 | 0.00 | 0.00 | 32 | 1022.2 |
| 20260903165417 | 87 | 118 | 3.0 | 3.0 | 0.00 | 0.00 | 0.00 | 32 | 1022.1 |
| 20260903164918 | 88 | 116 | 2.0 | 3.0 | 0.00 | 0.00 | 0.00 | 32 | 1022.2 |
| 20260903164417 | 88 | 135 | 2.0 | 3.0 | 0.00 | 0.00 | 0.00 | 31 | 1022.2 |
| 20260903163918 | 88 | 112 | 2.0 | 3.0 | 0.00 | 0.00 | 0.00 | 31 | 1022.1 |
| 20260903163418 | 88 | 112 | 3.0 | 6.0 | 0.00 | 0.00 | 0.00 | 31 | 1022.1 |
| 20260903162917 | 89 | 112 | 5.0 | 6.0 | 0.00 | 0.00 | 0.00 | 30 | 1022.1 |
| 20260903162416 | 89 | 124 | 2.0 | 3.0 | 0.00 | 0.00 | 0.00 | 31 | 1022.1 |
| 20260903161916 | 89 | 126 | 5.0 | 7.0 | 0.00 | 0.00 | 0.00 | 31 | 1022.1 |
| 20260903161417 | 89 | 135 | 6.0 | 8.0 | 0.00 | 0.00 | 0.00 | 31 | 1022.2 |
| 20260903160916 | 90 | 119 | 5.0 | 9.0 | 0.00 | 0.00 | 0.00 | 30 | 1022.1 |
| 20260903160416 | 90 | 137 | 3.0 | 6.0 | 0.00 | 0.00 | 0.00 | 31 | 1022.2 |
| 20260903155417 | 88 | 135 | 6.0 | 8.0 | 0.00 | 0.00 | 0.00 | 31 | 1022.2 |
| 20260903154916 | 88 | 145 | 3.0 | 5.0 | 0.00 | 0.00 | 0.00 | 32 | 1022.2 |
| 20260903154417 | 89 | 135 | 2.0 | 6.0 | 0.00 | 0.00 | 0.00 | 32 | 1022.3 |
| 20260903153917 | 89 | 135 | 5.0 | 7.0 | 0.00 | 0.00 | 0.00 | 32 | 1022.2 |
| 20260903153416 | 89 | 135 | 5.0 | 8.0 | 0.00 | 0.00 | 0.00 | 32 | 1022.2 |
| 20260903152917 | 89 | 138 | 7.0 | 10.0 | 0.00 | 0.00 | 0.00 | 31 | 1022.2 |
| 20260903152416 | 90 | 127 | 6.0 | 8.0 | 0.00 | 0.00 | 0.00 | 32 | 1022.1 |
| 20260903151916 | 90 | 122 | 7.0 | 8.0 | 0.00 | 0.00 | 0.00 | 32 | 1022.1 |
| 20260903151416 | 90 | 117 | 9.0 | 13.0 | 0.00 | 0.00 | 0.00 | 30 | 1022.1 |
| 20260903150917 | 91 | 112 | 5.0 | 6.0 | 0.00 | 0.00 | 0.00 | 29 | 1022.1 |
| 20260903150417 | 91 | 156 | 6.0 | 8.0 | 0.00 | 0.00 | 0.00 | 30 | 1022.2 |
| 20260903145917 | 90 | 135 | 7.0 | 9.0 | 0.00 | 0.00 | 0.00 | 31 | 1022.1 |
| 20260903145416 | 90 | 117 | 6.0 | 8.0 | 0.00 | 0.00 | 0.00 | 31 | 1022.2 |
| 20260903144917 | 90 | 138 | 7.0 | 8.0 | 0.00 | 0.00 | 0.00 | 32 | 1022.1 |
| 20260903144416 | 89 | 158 | 12.0 | 14.0 | 0.00 | 0.00 | 0.00 | 32 | 1022.3 |
| 20260903143916 | 89 | 158 | 7.0 | 12.0 | 0.00 | 0.00 | 0.00 | 32 | 1022.3 |
| 20260903143417 | 89 | 150 | 8.0 | 14.0 | 0.00 | 0.00 | 0.00 | 32 | 1022.3 |
| 20260903142916 | 89 | 135 | 6.0 | 10.0 | 0.00 | 0.00 | 0.00 | 32 | 1022.3 |
| 20260903142417 | 89 | 115 | 6.0 | 7.0 | 0.00 | 0.00 | 0.00 | 33 | 1022.3 |
| 20260903141916 | 89 | 128 | 7.0 | 8.0 | 0.00 | 0.00 | 0.00 | 33 | 1022.4 |
| 20260903141416 | 89 | 141 | 7.0 | 9.0 | 0.00 | 0.00 | 0.00 | 32 | 1022.4 |
| 20260903140917 | 89 | 135 | 7.0 | 12.0 | 0.00 | 0.00 | 0.00 | 33 | 1022.4 |
| 20260903140416 | 89 | 145 | 7.0 | 10.0 | 0.00 | 0.00 | 0.00 | 33 | 1022.4 |
| 20260903135915 | 89 | 135 | 6.0 | 8.0 | 0.00 | 0.00 | 0.00 | 33 | 1022.4 |